www.pogodaiklimat.ru

Погода и климат >> Архив погоды >> Индия >> Уттар-Прадеш >> Варанаси


ПОГОДА в Варанаси

  • Прогноз погоды в Варанаси
  • Монитор погоды в Варанаси

АРХИВ ПОГОДЫ в Варанаси

Время (UTC), дата Ветер
(напр.,м/с)
 
Видим.   Явления Облачность Т
(С)
Тd
(С)
f
(%)
Тe
(С)
Тes
(С)
Комфортность P
(гПа)
Po
(гПа)
Тmin
(С)
Tmax
(С)
R
(мм)
R24
(мм)
S
(см)
06 13.06 В 1 2000 м мгла 6/0
[Ci fib]
+38.8 +22.8 40 +48 +72 опасность
перегрева
1001.1 991.3
09 13.06 З 1 4000 м ясно +40.0 +22.9 38 +49 +67 опасность
перегрева
998.4 988.6
12 13.06 С 1 4000 м 5/3 600 м
[Sc Ac trans Ci fib]
+40.2 +18.6 29 +44 +45 опасность
перегрева
996.8 987.1 +42.5
00 14.06 штиль 0 2000 м мгла 4/4 600 м
[Sc]
+30.2 +20.9 58 +38 +38 очень
душно
999.4 989.3
03 14.06 СЗ 2 2000 м мгла 4/4 600 м
[Sc]
+33.8 +22.5 52 +43 +49 опасность
перегрева
1000.1 990.1 +31.6 +42.5
06 14.06 СЗ 2 4000 м ясно +38.4 +18.3 31 +42 +66 опасность
перегрева
999.6 989.8
09 14.06 ЮЗ 1 4000 м 1/1 600 м
[Sc]
+41.6 +20.2 29 +47 +63 опасность
перегрева
997.6 987.9
12 14.06 З 1 4000 м 4/0
[Ac trans]
+41.6 +18.1 26 +45 +46 опасность
перегрева
996.0 986.3 +43.0
00 15.06 ЮЗ 1 2000 м мгла 3/0
[Ci fib]
+33.6 +22.2 51 +42 +42 опасность
перегрева
997.9 987.9
03 15.06 З 2 4000 м ясно +37.0 +21.9 42 +45 +56 опасность
перегрева
999.1 989.2 +31.4 +43.0
06 15.06 З 2 4000 м ясно +39.8 +18.4 29 +43 +67 опасность
перегрева
998.2 988.4
09 15.06 З 2 4000 м ясно +44.2 +13.9 17 +44 +61 опасность
перегрева
995.7 986.1
12 15.06 З 1 4000 м ясно +43.4 +11.9 16 +43 +45 опасность
перегрева
994.3 984.7 +45.2
00 16.06 ЮЗ 1 2000 м мгла 5/3 600 м
[Sc Ci fib]
+33.0 +33.3 100 +72 +73 опасность
перегрева
998.7 988.7
03 16.06 ЮЗ 2 2000 м мгла 4/1 600 м
[Sc Ci fib]
+35.6 +22.3 46 +44 +53 опасность
перегрева
999.1 989.2 +32.7 +45.2
06 16.06 З 2 4000 м ясно +39.4 +19.5 32 +44 +66 опасность
перегрева
998.2 988.4
09 16.06 З 2 4000 м ясно +42.8 +17.3 23 +45 +62 опасность
перегрева
996.7 987.0
12 16.06 З 2 4000 м 5/1 600 м
[Sc Ci fib]
+41.2 +18.4 27 +45 +46 опасность
перегрева
997.5 987.8 +43.4
00 17.06 ЮЗ 2 2000 м мгла 3/0
[Ci fib]
+30.0 +22.7 65 +40 +40 очень
душно
1000.4 990.3
03 17.06 З 2 2000 м мгла ясно +32.8 +23.9 60 +45 +56 опасность
перегрева
1001.8 991.8 +29.8 +43.4
06 17.06 З 3 4000 м ясно +39.2 +19.6 32 +44 +64 опасность
перегрева
1000.3 990.5
09 17.06 СЗ 2 4000 м 4/4 600 м
[Sc]
+40.0 +21.1 34 +47 +56 опасность
перегрева
998.7 988.9
12 17.06 З 2 4000 м 3/3 600 м
[Sc]
+39.8 +20.2 32 +45 +46 опасность
перегрева
996.7 987.0 +41.0
00 18.06 штиль 0 2000 м мгла 3/1 600 м
[Sc Ci fib]
+30.4 +23.1 65 +41 +41 опасность
перегрева
1000.5 990.4
03 18.06 З 2 2000 м мгла ясно +33.4 +23.0 55 +44 +55 опасность
перегрева
1001.9 991.9 +31.2 +41.0
06 18.06 З 2 4000 м ясно +38.2 +19.4 34 +43 +67 опасность
перегрева
1001.3 991.5
09 18.06 З 2 4000 м ясно +39.0 +18.9 31 +43 +59 опасность
перегрева
999.1 989.3
12 18.06 СЗ 2 4000 м 3/3 600 м
[]
+39.4 +18.2 29 +43 +44 опасность
перегрева
997.0 987.2 +41.0
00 19.06 З 1 2000 м мгла 4/3 600 м
[Sc Ci fib]
+31.4 +20.3 52 +38 +38 очень
душно
1000.7 990.6
03 19.06 С 1 2000 м мгла 8/6 600 м
[Sc Ci fib]
+33.8 +20.0 44 +40 +44 очень
душно
1002.0 992.0 +30.8 +41.0
06 19.06 штиль 0 2000 м мгла 9/6 600 м
[Sc Ac trans]
+38.0 +18.3 32 +42 +48 опасность
перегрева
1001.5 991.6
09 19.06 СЗ 2 2000 м мгла 9/4 600 м
[Sc Ac trans]
+34.4 +19.3 41 +40 +44 очень
душно
1001.2 991.2
12 19.06 СЗ 2 2000 м мгла 8/4 600 м
[Sc Ac trans]
+34.6 +19.5 41 +40 +41 очень
душно
999.2 989.3 +39.7
00 20.06 штиль 0 2000 м мгла 8/6 600 м
[Sc Ci fib]
+30.2 +21.6 60 +38 +38 очень
душно
1001.9 991.8
03 20.06 ЮВ 1 2000 м мгла 5/5 600 м
[Sc]
+34.2 +20.5 45 +41 +47 опасность
перегрева
1003.0 993.0 +29.8 +39.7

 

Местоположение метеостанции Варанаси (Уттар-Прадеш, Индия): широта 25.30 долгота 83.02 высота над уровнем моря 90 м.

В архиве по умолчанию представлена погода в Варанаси за последнюю неделю. Архивные данные за месяц целиком и за предыдущие месяцы, начиная с января 2011 года, Вы можете получить, выбрав интересующий диапазон дат из раскрывающегося списка и нажав кнопку "Ввод!".


*Определитесь, кто Вы:
робот инопланетянин человек

Внимание! Время в таблицах - всемирное. Для получения местного времени необходимо прибавить поправку, которая равна 5.5 ч.

Смотрите также архив погоды в соседних городах и на ближайших метеорологических станциях:

Погода в Варанаси аэропорту (Уттар-Прадеш, Индия) (23 км)
Погода в Гхазипуре (Уттар-Прадеш, Индия) (54 км)
Погода в Дехри (Бихар, Индия) (124 км)
Погода в Аллахабаде (Уттар-Прадеш, Индия) (131 км)
Погода в Султанпуре (Уттар-Прадеш, Индия) (144 км)
Погода в Сидхи (Мадхья-Прадеш, Индия) (152 км)
Погода в Горакпуре (Уттар-Прадеш, Индия) (165 км)
Погода в Далтонгандже (Джаркханд, Индия) (175 км)
Погода в Чхапре (Бихар, Индия) (180 км)
Погода в Реве (Мадхья-Прадеш, Индия) (193 км)

Пояснения к столбцам:

Ветер - указаны скорость ветра в м/с - средняя за 10 мин, порывы в срок и между сроками (в фигурных скобках) и направление, откуда дует ветер: С - северный, СВ - северо-восточный, В - восточный, ЮВ - юго-восточный, Ю - южный, ЮЗ - юго-западный, З - западный, СЗ - северо-западный.
Видимость - горизонтальная дальность видимости в метрах или километрах. При видимости от 1 до 10 км при отсутствии осадков обычно наблюдается дымка, при ухудшении видимости до 1 км и менее - туман. В сухую погоду видимость может ухудшаться дымом, пылью или мглою.
Явления - указаны атмосферные явления, наблюдавшиеся в срок или в последний час перед сроком; фигурными скобками обозначены явления, наблюдавшиеся между сроками (за 1-3 часа до срока); квадратными скобками обозначены град или гололедные отложения с указанием их диаметра в мм.
Облачность - указаны через наклонную черту общая и нижняя облачность в баллах и высота нижней границы облаков в метрах; квадратными скобками обозначены формы облаков: Ci - перистые, Cs - перисто-слоистые, Cc - перисто-кучевые, Ac - высококучевые, As - высокослоистые, Sc - слоисто-кучевые, Ns - слоисто-дождевые, Cu - кучевые, Cb - кучево-дождевые. Подробнее классификацию облаков см. в Атласе облаков (PDF).
T - Температура воздуха - температура, измеренная на высоте 2 м над землей.
Td - Температура точки росы - температура, при понижении до которой содержащийся в воздухе водяной пар достигнет насыщения.
f - Относительная влажность воздуха - влажноcть воздуха, измеренная на высоте 2 м над землей.
Te - Эффективная температура - температура, которую ощущает одетый по сезону человек в тени. Характеристика душности погоды. При расчете учитывается влияние влажности воздуха и скорости ветра на теплоощущения человека.
Tes - Эффективная температура на солнце - температура, которую ощущает человек, с поправкой на солнечный нагрев. Характеристика знойности погоды. Зависит от высоты солнца над горизонтом, облачности и скорости ветра. Ночью, в пасмурную погоду, а также при ветре 12 м/с и более поправка равна нулю.
P - Атмосферное давление - приведенное к уровню моря атмосферное давление.
Po - Атмосферное давление - измеренное на уровне метеостанции атмосферное давление.
Tmin - Минимальная температура - минимум температуры воздуха на высоте 2 м над землей.
Tmax - Максимальная температура - максимум температуры воздуха на высоте 2 м над землей.
R - Количество осадков - Количество выпавших осадков за период времени, мм. При наведении курсора мыши на число - период времени, за который выпало указанное количество осадков.
R24 - Количество осадков - Количество выпавших осадков за 24 часа, мм.
S - Снежный покров - Высота снежного покрова, см. При наведении курсора мыши на число - состояние снежного покрова и степень покрытия местности в баллах.